Weather History for KFTY - March, 2013

Change the Weather History Date:

Tuesday, March 26, 2013

  Actual Average Record
Temperature  
Mean Temperature 37 °F 56 °F  
Max Temperature 43 °F 68 °F 82 °F (2005)
Min Temperature 33 °F 44 °F 29 °F (2014)
Degree Days  
Heating Degree Days 28 9  
Month to date heating degree days 317  
Since 1 July heating degree days 2657  
Cooling Degree Days 0 0  
Month to date cooling degree days 0  
Year to date cooling degree days 0  
Moisture  
Dew Point 24 °F    
Average Humidity 60    
Maximum Humidity 73    
Minimum Humidity 47    
Precipitation  
Precipitation 0.00 in 0.14 in 2.59 in (1971)
Month to date precipitation 4.13  
Year to date precipitation 13.30  
Sea Level Pressure  
Sea Level Pressure 30.18 in    
Wind  
Wind Speed 10 mph (WNW)    
Max Wind Speed 16 mph    
Max Gust Speed 28 mph    
Visibility 10 miles    
Events Snow    
T = Trace of Precipitation, MM = Missing Value Source: NWS Daily Summary

Daily Weather History Graph

Daily Weather History Graph

Search for Another Location

Airport or City:

Trip Planner

Search our weather history database for the weather conditions in past years. The results will help you decide how hot, cold, wet, or windy it might be!

Date:

Astronomy

Mar. 26, 2013 Rise Set
Actual Time 7:33 AM EDT 7:54 PM EDT
Civil Twilight 7:08 AM EDT 8:19 PM EDT
Nautical Twilight 6:39 AM EDT 8:48 PM EDT
Astronomical Twilight 6:09 AM EDT 9:18 PM EDT
Moon 7:29 PM EDT (3/26) 6:48 AM EDT (3/26)
Length of Visible Light 13h 11m
Length of Day
12h 21m
Waxing Gibbous, 99% of the Moon is Illuminated
Mar 26
Waxing Gibbous
Mar 27
Full
Apr 3
Last Quarter
Apr 10
New
Apr 18
First Quarter

Hourly Weather History & Observations

Time (EDT) Temp. Windchill Dew Point Humidity Pressure Visibility Wind Dir Wind Speed Gust Speed Precip Events Conditions
12:53 AM 34.0 °F 26.0 °F 21.9 °F 61% 30.11 in 10.0 mi West 10.4 mph - N/A   Mostly Cloudy
1:53 AM 34.0 °F 27.2 °F 21.9 °F 61% 30.09 in 10.0 mi West 8.1 mph - N/A   Clear
2:53 AM 33.1 °F 26.1 °F 23.0 °F 66% 30.09 in 10.0 mi West 8.1 mph - N/A   Clear
3:53 AM 33.1 °F 24.4 °F 24.1 °F 70% 30.08 in 10.0 mi West 11.5 mph 16.1 mph N/A   Overcast
4:53 AM 33.1 °F 27.7 °F 24.1 °F 70% 30.07 in 10.0 mi West 5.8 mph - N/A   Mostly Cloudy
5:53 AM 33.1 °F 24.4 °F 25.0 °F 72% 30.08 in 10.0 mi West 11.5 mph 18.4 mph N/A   Partly Cloudy
6:53 AM 33.1 °F 26.9 °F 25.0 °F 72% 30.09 in 10.0 mi WNW 6.9 mph - N/A   Mostly Cloudy
7:53 AM 34.0 °F 27.2 °F 26.1 °F 73% 30.11 in 10.0 mi WNW 8.1 mph 17.3 mph N/A   Overcast
8:50 AM 33.8 °F 25.3 °F 24.8 °F 70% 30.12 in 6.0 mi NW 11.5 mph - 0.00 in Snow Light Snow
8:53 AM 34.0 °F 24.6 °F 26.1 °F 73% 30.14 in 5.0 mi WNW 13.8 mph - 0.00 in Snow Light Snow
9:06 AM 35.6 °F 28.0 °F 26.6 °F 70% 30.13 in 8.0 mi WNW 10.4 mph 23.0 mph 0.00 in   Overcast
9:53 AM 37.0 °F 29.3 °F 25.0 °F 62% 30.16 in 10.0 mi NW 11.5 mph 24.2 mph 0.00 in   Mostly Cloudy
10:53 AM 37.0 °F 30.4 °F 25.0 °F 62% 30.18 in 10.0 mi NW 9.2 mph - N/A   Overcast
11:53 AM 37.9 °F 30.5 °F 24.1 °F 57% 30.20 in 10.0 mi WNW 11.5 mph 18.4 mph N/A   Overcast
12:53 PM 39.0 °F 32.8 °F 24.1 °F 55% 30.20 in 10.0 mi WNW 9.2 mph - N/A   Overcast
1:53 PM 39.0 °F 31.4 °F 23.0 °F 53% 30.20 in 10.0 mi NNW 12.7 mph 21.9 mph N/A   Overcast
2:53 PM 41.0 °F 33.9 °F 23.0 °F 49% 30.21 in 10.0 mi WNW 12.7 mph 23.0 mph N/A   Overcast
3:53 PM 41.0 °F 32.8 °F 21.9 °F 47% 30.20 in 10.0 mi NW 16.1 mph 25.3 mph N/A   Overcast
4:53 PM 41.0 °F 33.1 °F 24.1 °F 51% 30.22 in 10.0 mi NW 15.0 mph - N/A   Overcast
5:53 PM 41.0 °F 34.3 °F 21.9 °F 47% 30.22 in 10.0 mi NW 11.5 mph 27.6 mph N/A   Overcast
6:53 PM 39.9 °F 32.9 °F 23.0 °F 51% 30.24 in 10.0 mi NW 11.5 mph - N/A   Overcast
7:53 PM 39.0 °F 32.8 °F 24.1 °F 55% 30.26 in 10.0 mi WNW 9.2 mph 18.4 mph N/A   Overcast
8:53 PM 37.9 °F 30.9 °F 23.0 °F 55% 30.27 in 10.0 mi NW 10.4 mph 16.1 mph N/A   Overcast
9:53 PM 37.9 °F 29.6 °F 21.9 °F 53% 30.29 in 10.0 mi NNW 13.8 mph 20.7 mph N/A   Overcast
10:53 PM 37.0 °F 31.6 °F 21.0 °F 52% 30.30 in 10.0 mi NW 6.9 mph - N/A   Mostly Cloudy
11:53 PM 35.1 °F 32.2 °F 21.0 °F 57% 30.31 in 10.0 mi NW 3.5 mph - N/A   Clear